Location: Mohawk View
(42.7837°N, 73.7885°W)
Time: 08:07:14
(UTC+00:00)

Cosmos 1346 Rocket - Pass Details

Date: 17 June 2021
Orbit: 526 x 551 km, 81.2° (Epoch: 27 July)

Event Time Altitude Azimuth Distance (km) Brightness Sun altitude
Exits shadow 03:04:58 29° 94° (E) 1,009 3.9 -19.1°
Maximum altitude 03:05:01 29° 92° (E) 1,009 3.9 -19.1°
Drops below altitude 10° 03:08:31 10° 32° (NNE) 1,825 5.9 -19.3°
Sets 03:10:53 0° 21° (NNE) 2,727 7.0 -19.5°
